• In Belarus
  • List of Countries
  • For 7 days
  • Water Temperature
  • Satellite Maps
  • Weather Map
  • Weather Widgets
  • user-avatar
    Login

    Hourly Weather Townsville

    Today, 25 September, Tuesday

    Time Temperature Precipitation Wind Pressure Humidity
    00:00 +19°C° 0 mm 5 mps 757 mmHg 86%
    01:00 +19°C° 0 mm 5 mps 756 mmHg 89%
    02:00 +19°C° 0 mm 4 mps 756 mmHg 91%
    03:00 +18°C° 0 mm 4 mps 756 mmHg 92%
    04:00 +18°C° 0 mm 4 mps 756 mmHg 94%
    05:00 +19°C° 0.1 mm 4 mps 756 mmHg 92%
    06:00 +19°C° 0.1 mm 4 mps 756 mmHg 91%
    07:00 +20°C° 0.1 mm 4 mps 756 mmHg 89%
    08:00 +22°C° 0 mm 4 mps 756 mmHg 75%
    09:00 +26°C° 0 mm 5 mps 757 mmHg 62%
    10:00 +28°C° 0 mm 5 mps 757 mmHg 50%
    11:00 +29°C° 0 mm 6 mps 757 mmHg 47%
    12:00 +29°C° 0 mm 6 mps 756 mmHg 44%
    13:00 +30°C° 0 mm 6 mps 755 mmHg 42%
    14:00 +29°C° 0 mm 6 mps 755 mmHg 43%
    15:00 +29°C° 0 mm 6 mps 755 mmHg 45%
    16:00 +28°C° 0 mm 6 mps 755 mmHg 47%
    17:00 +27°C° 0 mm 6 mps 755 mmHg 55%
    18:00 +24°C° 0 mm 6 mps 755 mmHg 63%
    19:00 +22°C° 0 mm 6 mps 755 mmHg 71%
    20:00 +21°C° 0 mm 5 mps 756 mmHg 74%
    21:00 +21°C° 0 mm 5 mps 756 mmHg 78%
    22:00 +20°C° 0 mm 5 mps 757 mmHg 82%
    23:00 +20°C° 0 mm 5 mps 757 mmHg 85%

    Tomorrow, 26 September, Wednesday

    Time Temperature Precipitation Wind Pressure Humidity
    00:00 +20°C° 0 mm 5 mps 757 mmHg 87%
    01:00 +19°C° 0 mm 4 mps 756 mmHg 90%
    02:00 +19°C° 0 mm 4 mps 756 mmHg 92%
    03:00 +19°C° 0 mm 4 mps 756 mmHg 93%
    04:00 +18°C° 0 mm 4 mps 756 mmHg 94%
    05:00 +19°C° 0 mm 4 mps 756 mmHg 92%
    06:00 +19°C° 0 mm 4 mps 756 mmHg 89%
    07:00 +20°C° 0 mm 4 mps 756 mmHg 87%
    08:00 +23°C° 0 mm 5 mps 757 mmHg 72%
    09:00 +26°C° 0 mm 5 mps 757 mmHg 58%
    10:00 +29°C° 0 mm 5 mps 757 mmHg 44%
    11:00 +30°C° 0 mm 5 mps 756 mmHg 40%
    12:00 +32°C° 0 mm 6 mps 756 mmHg 36%
    13:00 +32°C° 0 mm 6 mps 755 mmHg 32%
    14:00 +32°C° 0 mm 6 mps 755 mmHg 36%
    15:00 +30°C° 0 mm 6 mps 754 mmHg 40%
    16:00 +29°C° 0 mm 6 mps 754 mmHg 43%
    17:00 +27°C° 0 mm 6 mps 755 mmHg 55%
    18:00 +25°C° 0 mm 5 mps 755 mmHg 66%
    19:00 +22°C° 0 mm 5 mps 756 mmHg 78%
    20:00 +22°C° 0 mm 4 mps 756 mmHg 81%
    21:00 +21°C° 0 mm 4 mps 756 mmHg 85%
    22:00 +21°C° 0 mm 4 mps 757 mmHg 88%
    23:00 +21°C° 0 mm 4 mps 757 mmHg 89%

    Day after tomorrow, 27 September, Thursday

    Time Temperature Precipitation Wind Pressure Humidity
    00:00 +20°C° 0 mm 4 mps 756 mmHg 91%
    01:00 +20°C° 0 mm 4 mps 756 mmHg 92%
    02:00 +20°C° 0 mm 4 mps 756 mmHg 93%
    03:00 +19°C° 0 mm 4 mps 756 mmHg 94%
    04:00 +19°C° 0 mm 4 mps 756 mmHg 95%
    05:00 +19°C° 0 mm 4 mps 756 mmHg 92%
    06:00 +20°C° 0 mm 3 mps 757 mmHg 89%
    07:00 +20°C° 0 mm 3 mps 757 mmHg 85%
    08:00 +23°C° 0 mm 4 mps 757 mmHg 70%
    09:00 +27°C° 0 mm 4 mps 757 mmHg 54%
    10:00 +29°C° 0 mm 4 mps 757 mmHg 38%
    11:00 +30°C° 0 mm 4 mps 757 mmHg 36%
    12:00 +32°C° 0 mm 4 mps 756 mmHg 33%
    13:00 +33°C° 0 mm 4 mps 755 mmHg 30%
    14:00 +32°C° 0 mm 4 mps 755 mmHg 32%
    15:00 +30°C° 0 mm 4 mps 754 mmHg 34%
    16:00 +30°C° 0 mm 4 mps 754 mmHg 36%
    17:00 +27°C° 0 mm 4 mps 755 mmHg 47%
    18:00 +25°C° 0 mm 3 mps 755 mmHg 58%
    19:00 +22°C° 0 mm 3 mps 756 mmHg 69%
    20:00 +21°C° 0 mm 3 mps 756 mmHg 74%
    21:00 +21°C° 0 mm 3 mps 757 mmHg 79%
    22:00 +20°C° 0 mm 3 mps 757 mmHg 85%
    23:00 +20°C° 0 mm 3 mps 757 mmHg 86%

    28 September, Friday

    Time Temperature Precipitation Wind Pressure Humidity
    00:00 +20°C° 0 mm 4 mps 756 mmHg 87%
    01:00 +20°C° 0 mm 4 mps 756 mmHg 88%
    02:00 +20°C° 0 mm 4 mps 756 mmHg 89%
    03:00 +20°C° 0 mm 3 mps 756 mmHg 90%
    04:00 +19°C° 0 mm 3 mps 756 mmHg 91%
    05:00 +20°C° 0 mm 3 mps 756 mmHg 88%
    06:00 +21°C° 0 mm 3 mps 757 mmHg 85%
    07:00 +21°C° 0 mm 3 mps 757 mmHg 82%
    08:00 +25°C° 0 mm 4 mps 757 mmHg 68%
    09:00 +27°C° 0 mm 4 mps 758 mmHg 54%
    10:00 +30°C° 0 mm 4 mps 758 mmHg 41%
    11:00 +32°C° 0 mm 5 mps 757 mmHg 38%
    12:00 +32°C° 0 mm 5 mps 757 mmHg 35%
    13:00 +33°C° 0 mm 5 mps 756 mmHg 32%
    14:00 +32°C° 0 mm 5 mps 756 mmHg 35%
    15:00 +30°C° 0 mm 5 mps 755 mmHg 38%
    16:00 +30°C° 0 mm 5 mps 755 mmHg 41%
    17:00 +27°C° 0 mm 5 mps 755 mmHg 52%
    18:00 +25°C° 0 mm 4 mps 756 mmHg 63%
    19:00 +22°C° 0 mm 4 mps 756 mmHg 75%
    20:00 +22°C° 0 mm 4 mps 757 mmHg 80%
    21:00 +21°C° 0 mm 4 mps 757 mmHg 85%
    22:00 +20°C° 0 mm 4 mps 757 mmHg 90%
    23:00 +20°C° 0 mm 4 mps 757 mmHg 91%

    29 September, Saturday

    Time Temperature Precipitation Wind Pressure Humidity
    00:00 +20°C° 0 mm 4 mps 757 mmHg 93%
    01:00 +20°C° 0 mm 4 mps 756 mmHg 95%
    02:00 +19°C° 0 mm 4 mps 756 mmHg 96%
    03:00 +19°C° 0 mm 4 mps 756 mmHg 96%
    04:00 +19°C° 0 mm 4 mps 756 mmHg 97%
    05:00 +20°C° 0 mm 4 mps 757 mmHg 94%
    06:00 +21°C° 0 mm 4 mps 757 mmHg 91%
    07:00 +21°C° 0 mm 4 mps 758 mmHg 88%
    08:00 +25°C° 0 mm 4 mps 758 mmHg 74%
    09:00 +27°C° 0 mm 4 mps 758 mmHg 61%
    10:00 +30°C° 0 mm 4 mps 758 mmHg 47%
    11:00 +32°C° 0 mm 4 mps 757 mmHg 42%
    12:00 +33°C° 0 mm 4 mps 756 mmHg 37%
    13:00 +35°C° 0 mm 4 mps 756 mmHg 33%
    14:00 +34°C° 0 mm 4 mps 755 mmHg 35%
    15:00 +33°C° 0 mm 4 mps 755 mmHg 37%
    16:00 +33°C° 0 mm 5 mps 754 mmHg 39%
    17:00 +29°C° 0 mm 4 mps 755 mmHg 52%
    18:00 +27°C° 0 mm 4 mps 756 mmHg 66%
    19:00 +23°C° 0 mm 4 mps 756 mmHg 79%
    20:00 +22°C° 0 mm 3 mps 757 mmHg 83%
    21:00 +22°C° 0 mm 3 mps 757 mmHg 87%
    22:00 +21°C° 0 mm 3 mps 757 mmHg 92%
    23:00 +21°C° 0 mm 3 mps 757 mmHg 93%

    30 September, Sunday

    Time Temperature Precipitation Wind Pressure Humidity
    00:00 +20°C° 0 mm 3 mps 757 mmHg 94%
    01:00 +20°C° 0 mm 3 mps 756 mmHg 95%
    02:00 +20°C° 0 mm 3 mps 756 mmHg 95%
    03:00 +20°C° 0 mm 3 mps 756 mmHg 96%
    04:00 +20°C° 0 mm 3 mps 756 mmHg 96%
    05:00 +20°C° 0 mm 3 mps 756 mmHg 93%
    06:00 +21°C° 0 mm 3 mps 757 mmHg 91%
    07:00 +21°C° 0 mm 3 mps 757 mmHg 88%
    08:00 +25°C° 0 mm 4 mps 757 mmHg 73%
    09:00 +28°C° 0 mm 4 mps 758 mmHg 57%
    10:00 +32°C° 0 mm 5 mps 758 mmHg 41%
    11:00 +33°C° 0 mm 6 mps 757 mmHg 37%
    12:00 +35°C° 0 mm 6 mps 756 mmHg 32%
    13:00 +36°C° 0 mm 6 mps 756 mmHg 27%
    14:00 +35°C° 0 mm 7 mps 755 mmHg 30%
    15:00 +34°C° 0 mm 7 mps 755 mmHg 33%
    16:00 +33°C° 0 mm 7 mps 755 mmHg 36%
    17:00 +30°C° 0 mm 7 mps 755 mmHg 47%
    18:00 +28°C° 0 mm 7 mps 756 mmHg 57%
    19:00 +24°C° 0 mm 7 mps 757 mmHg 68%
    20:00 +24°C° 0 mm 7 mps 757 mmHg 74%
    21:00 +23°C° 0 mm 7 mps 757 mmHg 80%
    22:00 +22°C° 0 mm 7 mps 758 mmHg 87%
    23:00 +23°C° 0 mm 7 mps 758 mmHg 84%
    Show more